Showing default

CBERS 1, 25940

Orbit data source: Space-Track

CBERS 1, 25940 is a CN and BR payload satellite in SSO that was launched on Thu, 14 Oct 1999 UTC via a CHANG ZHENG 4B launch vehicle from the Taiyaun Space Center, China (TSC). Payloads include a variety of satellites, spacecraft, and rockets equipped with specific instruments for various scientific and technological missions. These include communications satellites like Starlink; space stations such as the ISS; scientific satellites like the Hubble; Earth observation satellites from companies like Planet Labs, Umbra, and HawkEye 360; GPS; miniature CubeSats for education and research; and military/defense satellites.

Loading next visibility...
CBERS 1 details
Identifier
25940, 1999-057A
Orbit
SSO
Last TLE update19 hours ago
Origin
Flag of CNCAST/INPE (CN / CHBZ)
Flag of BRCAST/INPE (BR / CHBZ)
ManufacturerCAST
MissionCivil Imaging
Bus & MotorZY, AOCS 20N
Mass1,540 kg wet, ~1,450 kg dry
Launch date (UTC)
1999-10-14 (25 years ago)
Launch vehicle
CHANG ZHENG 4B
Launch site
Taiyaun Space Center, China (TSC)
Object type
Payload
Rocket body
Debris
Shape & HBRBox + 1 Pan, 9 m
Radar Cross Section9.469 m², Large (>1 m²)

Expand to show TLE details & history

TLE from 19 hours ago
0 CBERS 1
1 25940U 99057A   24355.79730574  .00000425  00000-0  16032-3 0  9997
2 25940  98.8257 339.6329 0005336 149.8933 210.2560 14.36579722319487
Epoch: 2024-12-20T19:08Z
Definitive object data (Epoch: 2024-12-20T19:08:07.215Z)
Latitude-0.00003°
Longitude-37.25482°
Altitude776.051 km
Speed7.464 km/s
True Right ascension22h 38m 31s
True Declination0° 00' 00"
Sunlit
Object was in daylight at TLE epoch
Visualization TLE readout
Latitude31.81827°
Longitude-41.96246°
Altitude775.526 km
Speed7.468 km/s
Apparent Right ascension23h 23m 03s
Apparent Declination-1° 44' 41"
Sunlit
Object is in daylight
Visualization observer readout
Local Sidereal Time12:42:18
Azimuth30.289° NE
Elevation-47.798°
Doppler factor1
Orbital elements
Apogee altitude770.776 km
Perigee altitude763.151 km
Semi-major axis7,145.101 km
Eccentricity0.0005336
Inclination98.8257°
RAAN339.6329°
Arg. of periapsis149.8933°
True anomaly210.22521°
Mean anomaly210.256°
Eccentric anomaly210.2406°
Mean motion3.59361 °/min
BSTAR0.00016032
Orbital period100.18 mins
Loading maneuver chart data...
Loading historical data...
Loading historical data...
Loading historical data...
Loading historical data...
Loading historical data...
Loading historical data...
Loading historical data...

CBERS 1 Visibility forecast

Observer location: undefined°, undefined

Span
Click to sort rows by Start time (UTC) header in descending order
Start Az.
Max El. time (UTC)
Max El. Az.
Max El.
End time (UTC)
End Az.
6 mins2024-12-21 22:02:18.508Z107.361° ESE2024-12-21 22:05:18.508Z64.176° ENE21.193°2024-12-21 22:08:18.508Z21.638° NNE
8 mins2024-12-21 23:40:18.508Z195.537° SSW2024-12-21 23:44:18.508Z270.059° WNW33.622°2024-12-21 23:48:18.508Z329.49° NNW
8 mins2024-12-22 11:50:18.508Z22.737° NE2024-12-22 11:54:18.508Z108.266° ESE42.019°2024-12-22 11:58:18.508Z181.805° SSW
4 mins2024-12-22 13:31:18.508Z317.265° NNW2024-12-22 13:32:18.508Z303.977° NW14.961°2024-12-22 13:35:18.508Z265.927° W
|